COSMOS 2526 (43432 NORAD) Tracking and Keplerian Element Data

This shows tracking and keplerian element data for the satellite.

Feedback or suggestion? Click here.




ElementValue
Catalog43432
NameCOSMOS 2526
Epoch Orbit379
Epoch Day113.55887177
Epoch Year2019
RAAN121.1573
Inclination0.0301
Eccentricity0.0002127
Argument of Perigee337.7006
Mean Anonmoly81.6894
Mean Motion1.00270245
Decay Rate-3.6E-06
L11 43432U 18037A 19113.55887177 -.00000360 00000-0 00000-0 0 9998
L22 43432 0.0301 121.1573 0002127 337.7006 81.6894 1.00270245 3796

Live tracking and technical data element details for COSMOS 2526 (NORAD 43432). COSMOS 2526 can be tracked NOW for your location showing map with azimuth and elevation plus other details from your city location.

Track the satellite on the map from your city or location and see movement details for azimuth, elevation, latitude, longitude, range, height, and movement on the map or in text.







IsCatalogInMostPopularTable: catalog: 43432, numindb: 142
Update: records affected: 1



GetName: 43432 COSMOS 2526

Hit Count: updated at: Wed, 24 Apr 2019 17:49:16 GMT